[[{"header":{"parameterUnit":"m.s-1","parameterCategory":1,"la1":30.2991,"la2":30.254,"lo1":-89.0895,"lo2":-89.0444,"dx":0.0017,"dy":0.0017,"nx":28,"ny":28,"refTime":"2022-11-03T15:00:00:Z","depth":0,"parameterNumber":2,"parameterNumberName":"U-component_of_WINDS"},"data":[0,0,0,0,0,0,0,0,0,0,0,0,0,0,0,0,0,0,0,0,0,0,0,0,0,0,0,0,0,0,0,0,0,0,0,0,0,0,0,0,0,0,0,0,0,0,0,0,0,0,0,0,0,0,0,0,0,0,-2.0714,-2.0713,0,-2.0624,-2.0623,-2.0622,-2.056,-2.0559,-2.0559,-2.0558,-2.0468,-2.0466,-2.0464,0,0,0,0,0,0,0,0,0,0,0,0,0,-2.0832,-2.083,-2.0714,-2.0713,-2.0711,-2.0625,-2.0623,-2.0622,-2.056,-2.0559,-2.0559,-2.0558,-2.0468,-2.0466,-2.0464,0,0,0,0,0,0,0,0,0,0,0,0,0,-2.0765,-2.0829,-2.0714,-2.067,-2.0665,-2.0625,-2.0623,-2.0622,-2.056,-2.0559,-2.0559,-2.0558,-2.0469,-2.0466,-2.0463,-2.046,0,0,-2.0454,-2.0453,0,0,0,0,0,0,0,0,-2.0769,-2.0761,-2.0677,-2.0673,-2.0667,-2.0603,-2.0632,-2.0567,-2.056,-2.06,-2.0558,-2.0558,-2.0513,-2.0506,-2.0491,-2.0455,-2.0451,-2.0454,-2.0452,-2.0451,-2.045,0,0,0,0,0,0,0,-2.0774,-2.0765,-2.0678,-2.0676,-2.067,-2.0655,-2.0645,-2.0619,-2.0562,-2.0596,-2.0592,-2.0582,-2.051,-2.0494,-2.0489,-2.045,-2.0454,-2.0451,-2.045,-2.0448,-2.041,-2.041,0,0,0,0,0,0,-2.0785,-2.0769,-2.0681,-2.0676,-2.0718,-2.0654,-2.0642,-2.0624,-2.0562,-2.0552,-2.0583,-2.0579,-2.05,-2.0492,-2.0485,-2.0479,-2.0451,-2.0448,-2.0446,-2.0409,-2.041,-2.0411,0,0,0,0,0,0,-2.0788,-2.0778,-2.0685,-2.0721,-2.0708,-2.0652,-2.0633,-2.0623,-2.0607,-2.0551,-2.0541,-2.0577,-2.0499,-2.0489,-2.0467,-2.0475,-2.0447,-2.0444,-2.0408,-2.0409,-2.041,-2.0466,0,0,0,0,0,0,-2.0792,-2.0779,-2.0777,-2.0721,-2.0706,-2.0668,-2.0633,-2.0622,-2.0602,-2.0597,-2.0543,-2.0534,-2.0498,-2.0472,-2.0464,-2.047,-2.0442,-2.0407,-2.0409,-2.041,-2.0463,-2.0469,-2.0473,0,0,0,0,0,-2.0796,-2.0795,-2.0777,-2.0767,-2.0702,-2.0668,-2.0659,-2.0618,-2.0603,-2.06,-2.0565,-2.0535,-2.0475,-2.047,-2.0461,-2.0466,-2.0407,-2.0408,-2.041,-2.0461,-2.0467,-2.0473,0,0,0,0,0,0,-2.0852,-2.0787,-2.0766,-2.0747,-2.0714,-2.0658,-2.0653,-2.0626,-2.0596,-2.0592,-2.0542,-2.0531,-2.0514,-2.0488,-2.0483,-2.0461,-2.0437,-2.0437,-2.0479,-2.0485,-2.049,-2.0498,-2.0439,0,0,0,0,0,-2.0863,-2.084,-2.0785,-2.0773,-2.0758,-2.0709,-2.0692,-2.0663,-2.0627,-2.0612,-2.0575,-2.0541,-2.0515,-2.0498,-2.047,-2.0459,-2.0447,-2.0458,-2.0463,-2.0468,-2.0469,-2.0463,-2.0468,-2.0416,-2.0416,-2.0416,0,0,-2.0883,-2.0845,-2.0834,-2.0784,-2.0754,-2.0734,-2.0697,-2.0676,-2.066,-2.0609,-2.0586,-2.0558,-2.0517,-2.0501,-2.0491,-2.0478,-2.0481,-2.047,-2.0474,-2.0472,-2.0466,-2.0471,-2.0475,-2.0417,-2.0417,-2.0417,0,0,-2.0911,-2.0879,-2.0867,-2.0839,-2.0796,-2.0764,-2.0761,-2.0709,-2.0689,-2.0666,-2.0628,-2.0609,-2.0563,-2.0536,-2.0517,-2.0538,-2.051,-2.053,-2.0558,-2.0553,-2.0557,-2.0561,-2.057,-2.0574,-2.0531,-2.0531,-2.0531,0,-2.0942,-2.0909,-2.0865,-2.0847,-2.0827,-2.078,-2.0769,-2.0744,-2.0694,-2.0682,-2.0667,-2.0612,-2.058,-2.0558,-2.0564,-2.0549,-2.0546,-2.0536,-2.056,-2.0563,-2.0566,-2.0574,-2.0578,-2.0534,-2.0533,-2.0533,-2.0533,0,-2.0951,-2.0929,-2.0925,-2.0879,-2.0858,-2.0844,-2.0798,-2.0783,-2.0757,-2.0726,-2.0704,-2.0665,-2.0631,-2.0623,-2.0596,-2.0598,-2.0592,-2.0569,-2.0545,-2.0574,-2.0582,-2.0584,-2.0538,-2.0537,-2.0536,-2.0535,0,0,-2.101,-2.0942,-2.0942,-2.0921,-2.0871,-2.0853,-2.0838,-2.0804,-2.0793,-2.076,-2.0747,-2.0712,-2.0692,-2.067,-2.064,-2.0635,-2.0658,-2.0614,-2.0612,-2.0625,-2.066,-2.0679,-2.0683,-2.0639,-2.0639,-2.0639,-2.0665,0,-2.1032,-2.1001,-2.0962,-2.0945,-2.0926,-2.0882,-2.0869,-2.0838,-2.081,-2.0789,-2.0758,-2.0734,-2.0708,-2.0695,-2.0689,-2.0656,-2.0664,-2.0653,-2.0628,-2.0627,-2.0641,-2.0687,-2.0705,-2.0731,-2.0667,-2.0667,-2.0668,0,-2.1052,-2.1024,-2.1005,-2.096,-2.095,-2.0939,-2.0906,-2.0887,-2.0851,-2.0831,-2.0808,-2.0776,-2.0759,-2.0737,-2.0714,-2.0707,-2.0695,-2.0677,-2.0677,-2.0674,-2.065,-2.0687,-2.0738,-2.0743,-2.0671,-2.0671,-2.0671,0,-2.1101,-2.1057,-2.1041,-2.1025,-2.097,-2.0964,-2.0941,-2.0905,-2.0888,-2.086,-2.0849,-2.0819,-2.0803,-2.0781,-2.0743,-2.073,-2.0725,-2.0699,-2.071,-2.0711,-2.0711,-2.0712,-2.0763,-2.07,-2.07,-2.07,-2.07,0,-2.1129,-2.112,-2.1063,-2.1053,-2.1042,-2.0998,-2.0989,-2.0962,-2.0931,-2.0916,-2.0876,-2.0863,-2.0813,-2.0795,-2.0765,-2.0752,-2.0744,-2.0729,-2.0722,-2.0734,-2.0736,-2.0725,-2.0723,-2.0701,-2.0701,-2.0701,-2.0701,0,-2.1181,-2.1142,-2.1122,-2.1073,-2.1061,-2.1056,-2.1014,-2.1004,-2.0974,-2.0956,-2.095,-2.0903,-2.088,-2.084,-2.0804,-2.0784,-2.0778,-2.0764,-2.0791,-2.0786,-2.0801,-2.0801,-2.0848,-2.0853,-2.0786,-2.0786,-2.0787,0,-2.1203,-2.1195,-2.1147,-2.1134,-2.1113,-2.1093,-2.1077,-2.1034,-2.1018,-2.0979,-2.0974,-2.0948,-2.0924,-2.089,-2.0854,-2.0827,-2.0813,-2.0832,-2.0809,-2.0823,-2.0816,-2.0818,-2.0819,-2.0837,-2.0838,-2.0839,-2.084,0,-2.1247,-2.1228,-2.1206,-2.1178,-2.1159,-2.1135,-2.1108,-2.11,-2.1051,-2.1036,-2.1013,-2.0995,-2.096,-2.0936,-2.0905,-2.0882,-2.0854,-2.0847,-2.0849,-2.0862,-2.0879,-2.0872,-2.0807,-2.0846,-2.0846,-2.0845,-2.0845,-2.0845,-2.1285,-2.1278,-2.1243,-2.122,-2.1196,-2.1173,-2.1162,-2.1132,-2.1111,-2.108,-2.1056,-2.1035,-2.1002,-2.0957,-2.0937,-2.092,-2.0907,-2.0909,-2.0909,-2.0911,-2.0917,-2.088,-2.0914,-2.0914,-2.0914,-2.0914,-2.0913,0,-2.1329,-2.1305,-2.1285,-2.125,-2.1233,-2.1207,-2.1177,-2.1165,-2.1147,-2.1119,-2.1097,-2.1072,-2.1048,-2.1011,-2.0985,-2.098,-2.0966,-2.0975,-2.0976,-2.0971,-2.0929,-2.0932,-2.0986,-2.0986,-2.0986,-2.0986,-2.0986,-2.0986,-2.135,-2.1336,-2.1315,-2.129,-2.1266,-2.1245,-2.1231,-2.121,-2.1188,-2.1161,-2.1142,-2.1118,-2.1087,-2.1059,-2.1037,-2.1027,-2.102,-2.1033,-2.1019,-2.0981,-2.0974,-2.0967,-2.097,-2.1031,-2.1031,-2.1063,-2.1063,-2.1063]},{"header":{"parameterUnit":"m.s-1","parameterCategory":1,"la1":30.2991,"la2":30.254,"lo1":-89.0895,"lo2":-89.0444,"dx":0.0017,"dy":0.0017,"nx":28,"ny":28,"refTime":"2022-11-03T15:00:00:Z","depth":0,"parameterNumber":3,"parameterNumberName":"V-component_of_WINDS"},"data":[0,0,0,0,0,0,0,0,0,0,0,0,0,0,0,0,0,0,0,0,0,0,0,0,0,0,0,0,0,0,0,0,0,0,0,0,0,0,0,0,0,0,0,0,0,0,0,0,0,0,0,0,0,0,0,0,0,0,0.3208,0.3207,0,0.3148,0.3148,0.3147,0.3168,0.3169,0.3171,0.3172,0.3107,0.3104,0.3101,0,0,0,0,0,0,0,0,0,0,0,0,0,0.3336,0.3333,0.3208,0.3207,0.3206,0.3148,0.3148,0.3147,0.3168,0.3169,0.3171,0.3172,0.3108,0.3105,0.3101,0,0,0,0,0,0,0,0,0,0,0,0,0,0.3279,0.3333,0.3208,0.321,0.3209,0.3149,0.3148,0.3147,0.3167,0.3169,0.3171,0.3173,0.3109,0.3105,0.3101,0.3033,0,0,0.3087,0.3085,0,0,0,0,0,0,0,0,0.3282,0.3274,0.321,0.3209,0.3209,0.3168,0.3169,0.3108,0.3167,0.3183,0.3172,0.3174,0.3125,0.312,0.3104,0.303,0.3027,0.3087,0.3084,0.3082,0.3081,0,0,0,0,0,0,0,0.3286,0.3277,0.3184,0.3209,0.3208,0.3213,0.3207,0.3158,0.3144,0.3182,0.3183,0.3176,0.3125,0.3108,0.3103,0.3026,0.3087,0.3083,0.308,0.3078,0.2893,0.2891,0,0,0,0,0,0,0.3291,0.328,0.3186,0.3182,0.3251,0.3209,0.3202,0.3179,0.3144,0.3141,0.3175,0.3177,0.3115,0.3108,0.3101,0.3018,0.3082,0.3078,0.3075,0.2896,0.2893,0.289,0,0,0,0,0,0,0.3293,0.3282,0.3188,0.3231,0.322,0.3204,0.3178,0.3177,0.316,0.3139,0.3136,0.316,0.3116,0.3107,0.305,0.3016,0.3076,0.3072,0.2898,0.2895,0.2892,0.2853,0,0,0,0,0,0,0.3297,0.3283,0.3258,0.3231,0.3217,0.3139,0.3176,0.3174,0.3152,0.3155,0.3124,0.3121,0.3117,0.3056,0.3045,0.3011,0.3068,0.2901,0.2897,0.2893,0.2858,0.2849,0.2842,0,0,0,0,0,0.3301,0.3249,0.3256,0.3245,0.3186,0.3137,0.313,0.3127,0.315,0.3123,0.311,0.3122,0.3023,0.305,0.3038,0.3002,0.2903,0.2898,0.2893,0.2861,0.2851,0.2842,0,0,0,0,0,0,0.327,0.3245,0.3253,0.319,0.3166,0.3141,0.3108,0.3117,0.3084,0.3089,0.3086,0.3079,0.302,0.3006,0.3038,0.2935,0.2966,0.2958,0.2946,0.2936,0.2928,0.2932,0.3065,0,0,0,0,0,0.3257,0.322,0.32,0.3146,0.3134,0.3123,0.3102,0.3103,0.3077,0.3066,0.3049,0.3022,0.2985,0.296,0.2925,0.2857,0.2849,0.2826,0.2818,0.2812,0.2804,0.2766,0.2755,0.2874,0.2874,0.2874,0,0,0.3227,0.3209,0.3185,0.314,0.3121,0.3082,0.3114,0.3072,0.3043,0.3059,0.3004,0.2991,0.2961,0.2898,0.2869,0.2884,0.277,0.2806,0.2801,0.2796,0.276,0.2748,0.2738,0.287,0.2871,0.2872,0,0,0.3152,0.3136,0.3089,0.307,0.3042,0.3035,0.3024,0.2998,0.299,0.2935,0.2946,0.2912,0.2848,0.2826,0.2806,0.2725,0.2734,0.2714,0.2672,0.2635,0.2625,0.2617,0.2586,0.2575,0.2707,0.2707,0.2707,0,0.3118,0.3062,0.3063,0.302,0.2999,0.3015,0.2966,0.2947,0.2908,0.2893,0.2911,0.2831,0.2812,0.2744,0.2724,0.2709,0.2694,0.2716,0.2627,0.2619,0.2611,0.2581,0.257,0.2705,0.2705,0.2705,0.2705,0,0.302,0.2981,0.2947,0.291,0.2885,0.284,0.2834,0.2808,0.2812,0.2803,0.2747,0.2725,0.2685,0.267,0.2672,0.2601,0.2611,0.2628,0.2659,0.2597,0.2569,0.2558,0.2701,0.2702,0.2703,0.2703,0,0,0.2922,0.2888,0.2875,0.2859,0.2829,0.2798,0.2754,0.2716,0.2694,0.2667,0.2628,0.2575,0.259,0.2568,0.2568,0.2536,0.2471,0.2557,0.2556,0.254,0.239,0.2375,0.2362,0.2478,0.2476,0.2475,0.2392,0,0.2843,0.2766,0.2766,0.2694,0.2657,0.2672,0.2632,0.261,0.2601,0.2567,0.2557,0.2518,0.2543,0.253,0.2499,0.2486,0.2441,0.2492,0.244,0.2438,0.2444,0.2348,0.2332,0.2255,0.2381,0.2379,0.2378,0,0.2741,0.2712,0.2636,0.2612,0.2596,0.2561,0.2527,0.2495,0.247,0.2466,0.2442,0.2447,0.24,0.2435,0.237,0.2405,0.2384,0.2374,0.2371,0.2364,0.2402,0.2335,0.223,0.2218,0.2361,0.2362,0.2364,0,0.2674,0.2616,0.2563,0.2548,0.252,0.2495,0.2481,0.2458,0.2436,0.2406,0.239,0.2355,0.2335,0.2307,0.2302,0.2328,0.2236,0.2271,0.2229,0.2229,0.2207,0.2207,0.2094,0.2198,0.2198,0.2198,0.2198,0,0.2584,0.2536,0.2532,0.2499,0.2446,0.2448,0.2395,0.2384,0.2363,0.2327,0.2339,0.2304,0.2302,0.2267,0.2263,0.2208,0.22,0.2194,0.2193,0.2191,0.2191,0.2175,0.2179,0.2195,0.2196,0.2196,0.2197,0,0.2499,0.2495,0.2437,0.2416,0.2409,0.2371,0.2352,0.232,0.2313,0.2268,0.2257,0.2246,0.2205,0.2199,0.215,0.2148,0.2082,0.2088,0.209,0.209,0.2048,0.2051,0.1918,0.19,0.2018,0.2017,0.2016,0,0.244,0.2404,0.238,0.2357,0.2343,0.2307,0.2284,0.2285,0.226,0.2229,0.22,0.2161,0.2129,0.2063,0.205,0.2013,0.2016,0.1972,0.201,0.201,0.2013,0.2014,0.2009,0.1964,0.1962,0.1961,0.1961,0,0.2337,0.2337,0.2304,0.2271,0.2244,0.2218,0.2193,0.2174,0.2171,0.2143,0.2103,0.2078,0.203,0.199,0.1953,0.1939,0.1948,0.1949,0.1937,0.1933,0.1935,0.1931,0.2067,0.1951,0.1952,0.1953,0.1953,0.1954,0.2261,0.223,0.2207,0.2171,0.2153,0.213,0.2098,0.2089,0.2055,0.2016,0.2019,0.1973,0.1949,0.1901,0.1884,0.1847,0.1861,0.1845,0.184,0.1835,0.183,0.1944,0.1841,0.1841,0.1842,0.1842,0.1842,0,0.2156,0.2143,0.211,0.2075,0.2046,0.2061,0.2035,0.2009,0.1969,0.1946,0.1915,0.1868,0.183,0.1814,0.1776,0.175,0.1753,0.174,0.174,0.1736,0.1821,0.1834,0.1737,0.1737,0.1737,0.1738,0.1738,0.1738,0.2098,0.2045,0.2042,0.198,0.1967,0.1923,0.1907,0.1885,0.1867,0.1814,0.1782,0.1773,0.1753,0.1714,0.1679,0.1675,0.166,0.1643,0.1641,0.172,0.173,0.174,0.1752,0.1641,0.1641,0.156,0.1559,0.1558]}]]